Regional Weather Roundup
Issued by NWS

Home | Current Version | Previous Version | Graphics & Text | Print | Product List | Glossary On
Versions: 1 2 3 4 5 6 7 8 9 10 11 12 13 14 15 16 17 18 19 20 21 22 23 24 25 26 27 28 29 30 31 32 33 34 35 36 37 38 39 40 41 42 43 44 45 46 47 48 49 50
000
ASUS45 KBOU 231207
RWRCO

WEATHER ROUNDUP FOR COLORADO
NATIONAL WEATHER SERVICE DENVER/BOULDER CO
600 AM MDT SAT MAY 23 2015

NOTE: "FAIR" INDICATES FEW OR NO CLOUDS BELOW 12000 FEET WITH NO
SIGNIFICANT WEATHER AND/OR OBSTRUCTIONS TO VISIBILITY.

COZ001>005-013-030-031-231300-
...NORTHWEST COLORADO...

CITY           SKY/WX    TMP DP  RH WIND       PRES   REMARKS
CRAIG          CLOUDY    41  38  89 W7        30.03R
HAYDEN         MOCLDY    39  34  81 SE6       30.02R
MEEKER         MOCLDY    41  36  82 MISG      30.00F
MOUNT WERNER   NOT AVBL
STEAMBOAT SPGS PTCLDY    35  34  97 CALM      30.02S
WALDEN         PTCLDY    34  32  93 E5        29.95F WCI  30
$$

COZ006>008-011-231300-
...WEST CENTRAL VALLEYS...

CITY           SKY/WX    TMP DP  RH WIND       PRES   REMARKS
GRAND JUNCTION CLEAR     45  42  89 E12       29.92F
MONTROSE       CLEAR     43  36  76 SE9       29.99F
EAGLE          CLOUDY    45  45 100 E3        30.07S
RIFLE          CLEAR     44  39  82 S3        29.96F
DELTA          CLEAR     46  41  83 MISG      29.97F
NUCLA          CLEAR     41  34  75 E8        30.01F
$$

COZ017>023-064>068-231300-
...SOUTHWEST COLORADO...

CITY           SKY/WX    TMP DP  RH WIND       PRES   REMARKS
DURANGO        PTCLDY    36  33  89 CALM      30.04R
CORTEZ         MOCLDY    37  35  92 E3        30.01F
PAGOSA SPRINGS CLOUDY    42  40  93 CALM      30.09R
TELLURIDE      PTCLDY    33  32  93 CALM      30.08F
WOLF CREEK PAS NOT AVBL
$$

COZ009-010-012-014-032>034-037-058>063-231300-
...CENTRAL COLORADO...

CITY           SKY/WX    TMP DP  RH WIND       PRES   REMARKS
ASPEN          CLOUDY    38  35  89 SW5       30.05S
BUENA VISTA    CLOUDY    39  35  86 W3        30.09S
COPPER MTN     PTCLDY    32  27  80 CALM      30.18F
BERTHOUD PASS  MOCLDY    23  16  74 CALM      30.22F
COTTONWOOD PAS CLOUDY    37  34  87 E5        30.13S
GUNNISON       MOCLDY    34  30  86 CALM      30.10S VSB 3/4
KREMMLING      CLOUDY    37  36  93 CALM      30.09R
LEADVILLE      FOG       30  30 100 W3        30.12R VSB 3/4
MONARCH PASS   FOG       27  27 100 MISG      30.28F VSB<1/4
SALIDA         MOCLDY    40  37  86 W3        30.15S
SUNLIGHT       PTCLDY    32  30  93 SE3         N/A
WILKERSON PASS CLEAR     30  28  93 CALM      30.19F
$$

COZ069>075-231300-
...SAN LUIS VALLEY/SANGRE DE CRISTO MOUNTAINS...

CITY           SKY/WX    TMP DP  RH WIND       PRES   REMARKS
ALAMOSA        CLEAR     38  35  89 W3        30.05S
LA VETA PASS   CLEAR    N/A N/A N/A MISG      30.14R THUNDER
SAGUACHE       PTCLDY    37  34  87 NW13      30.07F
$$

COZ035-036-038>040-231300-
...NORTHERN COLORADO FRONT RANGE...

CITY           SKY/WX    TMP DP  RH WIND       PRES   REMARKS
DENVER INTL AP FOG       47  46  97 E3        30.02S VSB 1/4
DMNS CITY PARK   N/A     47  46  98 E3        30.03S
AURORA         MOCLDY    46  46  99 CALM      30.04R
FRONT RANGE AP NOT AVBL
ERIE MUNI ARPT FOG       47  47  99 CALM      30.02S VSB 1/4
BOULDER MUN AP CLOUDY    46  46 100 CALM      30.01S FOG
CENTENNIAL     CLOUDY    47  46  97 N3        30.04R FOG
BROOMFIELD     CLOUDY    46  46 100 CALM      30.03S FOG
FORT COLLINS   MOCLDY    48  46  93 NE3       30.03S
LONGMONT       FOG       48  47  96 CALM      30.03S VSB 1
$$

COZ041-046-047-076>085-087-088-231300-
...PIKES PEAK/PALMER DIVIDE AND SOUTHERN FOOTHILLS...

CITY           SKY/WX    TMP DP  RH WIND       PRES   REMARKS
COLO. SPRINGS  MOCLDY    46  43  89 NW5       30.04S
A. F. ACADEMY  CLOUDY    45  45  99 N7        30.04S
ELLICOTT       NOT AVBL
FALCON         CLOUDY    45  44  95 NE9       30.06F
FORT CARSON    PTCLDY    43  43  98 N9        30.02R
LIMON          CLOUDY    49  49 100 CALM      30.02R FOG
MONUMENT HILL  NOT AVBL
TRINIDAD       LGT RAIN  49  45  86 NW3       30.01R
$$

COZ042>045-048>051-090-091-231300-
...NORTHEAST COLORADO...

CITY           SKY/WX    TMP DP  RH WIND       PRES   REMARKS
GREELEY ARPT   CLOUDY    48  46  93 E3        30.02S
AKRON          FOG       50  50 100 SE7       30.02S VSB 1/2
BURLINGTON     FOG       54  53  97 SE15      30.01F VSB 3/4
WRAY           FOG      N/A N/A N/A E10       30.00F VSB 1
STERLING       CLOUDY    50  50 100 CALM      30.01S FOG
HOLYOKE        NOT AVBL
FORT MORGAN    CLOUDY    49  48  96 NE3       30.02F FOG
$$

COZ086-089-092>099-231300-
...SOUTHEAST COLORADO...

CITY           SKY/WX    TMP DP  RH WIND       PRES   REMARKS
PUEBLO         MOCLDY    48  46  93 N8        29.98F
LA JUNTA       CLOUDY    53  50  89 S9        29.98R
LAMAR          LGT RAIN  58  51  78 S25G33    29.98R
SPRINGFIELD      N/A     50  49  96 NE23      29.97F
$$



USA.gov is the U.S. government's official web portal to all federal, state and local government web resources and services.